AirNav   Everest Fuels
 
 972 users online  

UT73 Diamond 'G' Ranch Heliport
Toquerville, Utah, USA

GOING TO TOQUERVILLE?


FAA INFORMATION EFFECTIVE 21 MAY 2020

Location

FAA Identifier: UT73
Lat/Long: 37-14-04.9370N 113-16-38.8130W
37-14.082283N 113-16.646883W
37.2347047,-113.2774481
(estimated)
Elevation: 3020 ft. / 920 m (estimated)
Variation: 14E (1990)
From city: 2 miles S of TOQUERVILLE, UT
Time zone: UTC -6 (UTC -7 during Standard Time)
Zip code: 84774

Heliport Operations

Heliport use: Private use. Permission required prior to landing
Activation date: 01/1994
Control tower: no
ARTCC: LOS ANGELES CENTER
FSS: CEDAR CITY FLIGHT SERVICE STATION
Attendance: UNATNDD
Segmented circle: no

Heliport Communications

WX AWOS-3PT at SGU (16 nm SW): 135.075 (435-634-0940)

Nearby radio navigation aids

VOR radial/distance  VOR name  Freq  Var
UTIr029/17.4ST GEORGE VOR/DME108.6012E
EHKr181/34.6ENOCH VOR/DME117.3016E

 
NDB name  Hdg/Dist  Freq  Var  ID
COLORADO CITY309/20.940313EAZC .- --.. -.-.

Heliport Services

Runway Information

Helipad H1

Dimensions: 30 x 30 ft. / 9 x 9 m
Surface: asphalt
Traffic pattern: leftleft

Heliport Ownership and Management from official FAA records

Ownership: Privately-owned
Owner: STEVE GILBERT
P O BOX 665
CEDAR CITY, UT 84720
Phone 435-586-5138
Manager: STEVE GILBERT
P O BOX 665
CEDAR CITY, UT 84720
Phone 435-586-5138

Heliport Operational Statistics

Aircraft based on the field: 1
Helicopters: 1
    

Additional Remarks

A52-H1 HAS LANDFILL 100 FT SE OF LANDING AREA.
FOR CD CTC LOS ANGELES ARTCC AT 661-575-2079.

Instrument Procedures

There are no published instrument procedures at UT73.

Some nearby airports with instrument procedures:

KSGU - St George Regional Airport (16 nm SW)
KAZC - Colorado City Municipal Airport (21 nm SE)
KCDC - Cedar City Regional Airport (29 nm N)
KKNB - Kanab Municipal Airport (38 nm E)
67L - Mesquite Airport (44 nm SW)
 
Loc | Ops | Rwys | IFR | FBO | Links
Com | Nav | Svcs | Stats | Notes
Area around UT73 (Diamond 'G' Ranch Heliport)
 
Road maps at: MapQuest Bing Google
 
Aerial photo
No photo
 
Sectional chart

 
Airport distance calculator
Flying to Diamond 'G' Ranch Heliport? Find the distance to fly.

From to UT73

Sunrise and sunset
Times for 06-Jun-2020
 Local
(UTC-6)
 Zulu
(UTC)
Morning civil twilight05:4311:43
Sunrise06:1412:14
Sunset20:5002:50
Evening civil twilight21:2103:21

Current date and time
Zulu (UTC)  06-Jun-2020 14:42:21
Local (UTC-6)  06-Jun-2020 08:42:21
 
METAR
KSGU 
18nm SW 
061356Z AUTO 16013KT 10SM CLR 24/M02 A2970 RMK AO2 SLP016 T02391022
KAZC 
21nm SE 
061415Z AUTO 19007KT 10SM CLR 20/M01 A2985 RMK AO2 LTG DSNT NE
KCDC 
29nm N 
061353Z AUTO 19017G23KT 10SM CLR 19/M06 A2977 RMK AO2 SLP001 T01891056
TAF
KSGU 
18nm SW 
061120Z 0612/0712 16010KT P6SM SCT080 SCT150 FM061300 18014G24KT P6SM SCT080 SCT150 FM061900 22025G35KT P6SM SCT080 SCT150 FM070300 19010KT P6SM SCT080 SCT150
NOTAMs
Click for the latest NOTAMs
NOTAMs are issued by the DoD/FAA and will open in a separate window not controlled by AirNav.

 

 
 

Would you like to see your business listed on this page?

 If your business provides an interesting product or service to pilots, flight crews, aircraft, or users of the Diamond 'G' Ranch Heliport, you should consider listing it here.  To start the listing process, click on the button below
 
Add a business
 

Other Pages about Diamond 'G' Ranch Heliport

Update a link
 
Copyright © AirNav, LLC. All rights reserved. Privacy Policy  Contact